Regional Weather Roundup
Issued by NWS

Home | Current Version | Previous Version | Graphics & Text | Print | Product List | Glossary On
Versions: 1 2 3 4 5 6 7 8 9 10 11 12 13 14 15 16 17 18 19 20 21 22 23 24 25 26 27 28 29 30 31 32 33 34 35 36 37 38 39 40 41 42 43 44 45 46 47 48 49 50
000
ASUS45 KCYS 201710
RWRWY

WYOMING REGIONAL WEATHER ROUNDUP
NATIONAL WEATHER SERVICE CHEYENNE WY
1100 AM MDT SUN MAY 20 2018

NOTE:  "FAIR" INDICATES FEW OR NO CLOUDS BELOW 12,000 FEET
WITH NO SIGNIFICANT WEATHER AND/OR OBSTRUCTIONS TO VISIBILITY.

WYZ001-201800-
YELLOWSTONE NATIONAL PARK

CITY           SKY/WX    TMP DP  RH WIND       PRES   REMARKS
LK YELLOWSTONE   N/A     49  35  58 VRB3      30.19F
W YELLOWSTONE  NOT AVBL

$$
WYZ002>013-054>058-071-098>099-201800-
NORTHERN WYOMING

CITY           SKY/WX    TMP DP  RH WIND       PRES   REMARKS
JACKSON        FAIR      55  38  52 VRB6      30.13F
CODY           FAIR      59  42  53 SE5       30.11F
GREYBULL       FAIR      62  43  49 S12       30.10F
WORLAND        FAIR      61  42  49 S13       30.10F
SHERIDAN       FAIR      62  46  55 SE23      30.08F
BUFFALO        FAIR      59  42  53 S21G33    30.13F
GILLETTE       FAIR      56  40  55 SE22G31   30.17F
NEWCASTLE      FAIR      52  34  50 SE12G17   30.24F

$$
WYZ014>020-022>026-101>103-201800-
CENTRAL WYOMING

CITY           SKY/WX    TMP DP  RH WIND       PRES   REMARKS
BIG PINEY      CLOUDY    51  37  58 CALM      30.18F
PINEDALE       FAIR      52  37  58 NE6       30.19S
DUBOIS         FAIR      52  36  54 SE8       30.15F
LANDER         PTSUNNY   52  42  69 SE9       30.15F
RIVERTON       CLOUDY    52  39  61 VRB3      30.16F
CASPER         FAIR      49  42  77 CALM      30.18F
DOUGLAS        FAIR      51  42  71 SE22      30.20F

$$
WYZ021-027>030-104>119-201800-
SOUTHERN WYOMING

CITY           SKY/WX    TMP DP  RH WIND       PRES   REMARKS
EVANSTON       FAIR      54  41  61 E12       30.14F
KEMMERER       FAIR      54  37  54 E12G17    30.18S
FORT BRIDGER   FAIR      54  40  59 E10       30.20S
ROCK SPRINGS   FAIR      51  38  60 E8        30.18F
DIXON          FAIR      59  37  43 CALM      30.18F
RAWLINS        FAIR      52  37  56 VRB3      30.19F
SARATOGA       FAIR      52  36  54 CALM      30.19F
LARAMIE        FAIR      51  38  60 SE17      30.18F
CHEYENNE       CLOUDY    43  41  93 S10       30.23F
TORRINGTON     FAIR      51  39  63 S5        30.22F
PINE BLUFFS    FAIR      50  41  71 S7        30.24F

$$



USA.gov is the U.S. government's official web portal to all federal, state and local government web resources and services.